Voltar ao catálogo

COSMOS 2251 DEB

AtivoLEO
NORAD 35284·DEBRIS·🇷🇺 Russia

Lançado Jun 16, 1993 de Plesetsk Cosmodrome

Loading…

Próximas Passagens (próximas 24 horas)

TLE

AtualizadoSource: Space-Track

Época: Sep 14, 2026, 07:28 UTC

1 35284U 93036AJN 26257.31174947  .00000247  00000-0  89148-4 0  9998
2 35284  74.0475 116.9212 0015911 132.1223 347.8048 14.38555128694885

Acompanhe COSMOS 2251 DEB em tempo real com AllMySat

Download on the App Store